Location: Haulchin
(50.3172°N, 3.4360°E)
Time: 02:53:15
(UTC+00:00)

Cosmos 381 Rocket - Pass Details

Date: 23 May 2024
Orbit: 955 x 995 km, 74.0° (Epoch: 21 June)

Event Time Altitude Azimuth Distance (km) Brightness Sun altitude
Rises 00:28:55 0° 334° (NNW) 3,725 8.4 -18.3°
Reaches altitude 10° 00:31:29 10° 334° (NNW) 2,770 7.6 -18.2°
Maximum altitude 00:37:55 77° 249° (WSW) 1,022 4.5 -18.0°
Enters shadow 00:41:54 25° 168° (SSE) 1,895 5.5 -17.9°
